| time (UTC) | temp F | wind direction | speed MPH | gust MPH | rain 1hr in | rain 24hr in | rain mn in | humidity % | barometer mb |
| 20260906101021 | 68 | 236 | 2.0 | 5.0 | 0.00 | 0.00 | 0.00 | 66 | 1024.8 |
| 20260906100536 | 68 | 127 | 3.0 | 6.0 | 0.00 | 0.00 | 0.00 | 66 | 1024.8 |
| 20260906100031 | 68 | 180 | 3.0 | 9.0 | 0.00 | 0.00 | 0.00 | 66 | 1024.9 |
| 20260906095537 | 68 | 97 | 2.0 | 9.0 | 0.00 | 0.00 | 0.00 | 65 | 1024.7 |
| 20260906095018 | 68 | 182 | 3.0 | 8.0 | 0.00 | 0.00 | 0.00 | 66 | 1024.8 |
| 20260906094536 | 68 | 80 | 3.0 | 6.0 | 0.00 | 0.00 | 0.00 | 63 | 1024.8 |
| 20260906094022 | 68 | 186 | 1.0 | 9.0 | 0.00 | 0.00 | 0.00 | 66 | 1024.9 |
| 20260906093531 | 68 | 116 | 4.0 | 9.0 | 0.00 | 0.00 | 0.00 | 64 | 1024.9 |
| 20260906093033 | 69 | 174 | 4.0 | 6.0 | 0.00 | 0.00 | 0.00 | 68 | 1025.0 |
| 20260906092530 | 67 | 199 | 2.0 | 8.0 | 0.00 | 0.00 | 0.00 | 67 | 1025.0 |
| 20260906092017 | 67 | 162 | 4.0 | 8.0 | 0.00 | 0.00 | 0.00 | 68 | 1025.2 |
| 20260906091535 | 67 | 140 | 3.0 | 8.0 | 0.00 | 0.00 | 0.00 | 69 | 1025.2 |
| 20260906091038 | 67 | 141 | 3.0 | 8.0 | 0.00 | 0.00 | 0.00 | 70 | 1025.3 |
| 20260906090624 | 66 | 124 | 4.0 | 9.0 | 0.00 | 0.00 | 0.00 | 70 | 1025.3 |
| 20260906090135 | 65 | 156 | 4.0 | 9.0 | 0.00 | 0.00 | 0.00 | 71 | 1025.4 |
| 20260906085649 | 65 | 157 | 2.0 | 6.0 | 0.00 | 0.00 | 0.00 | 73 | 1025.4 |
| 20260906085135 | 65 | 190 | 3.0 | 6.0 | 0.00 | 0.00 | 0.00 | 74 | 1025.4 |
| 20260906084632 | 64 | 195 | 3.0 | 6.0 | 0.00 | 0.00 | 0.00 | 77 | 1025.5 |
| 20260906084203 | 64 | 107 | 3.0 | 7.0 | 0.00 | 0.00 | 0.00 | 76 | 1025.4 |
| 20260906083635 | 63 | 205 | 2.0 | 10.0 | 0.00 | 0.00 | 0.00 | 76 | 1025.5 |
| 20260906083132 | 63 | 273 | 3.0 | 10.0 | 0.00 | 0.00 | 0.00 | 77 | 1025.5 |
| 20260906082645 | 63 | 100 | 2.0 | 5.0 | 0.00 | 0.00 | 0.00 | 79 | 1025.5 |
| 20260906082114 | 62 | 123 | 2.0 | 5.0 | 0.00 | 0.00 | 0.00 | 80 | 1025.4 |
| 20260906081645 | 62 | 201 | 1.0 | 5.0 | 0.00 | 0.00 | 0.00 | 80 | 1025.4 |
| 20260906081200 | 62 | 179 | 2.0 | 6.0 | 0.00 | 0.00 | 0.00 | 81 | 1025.4 |
| 20260906080631 | 61 | 153 | 3.0 | 6.0 | 0.00 | 0.00 | 0.00 | 81 | 1025.3 |
| 20260906080137 | 61 | 171 | 3.0 | 6.0 | 0.00 | 0.00 | 0.00 | 81 | 1025.3 |
| 20260906075620 | 61 | 168 | 3.0 | 5.0 | 0.00 | 0.00 | 0.00 | 82 | 1025.4 |
| 20260906075128 | 60 | 115 | 1.0 | 4.0 | 0.00 | 0.00 | 0.00 | 83 | 1025.4 |
| 20260906074642 | 60 | 201 | 2.0 | 4.0 | 0.00 | 0.00 | 0.00 | 83 | 1025.5 |
| 20260906074128 | 60 | 169 | 1.0 | 4.0 | 0.00 | 0.00 | 0.00 | 84 | 1025.5 |
| 20260906073631 | 59 | 145 | 1.0 | 5.0 | 0.00 | 0.00 | 0.00 | 84 | 1025.5 |
| 20260906073128 | 59 | 212 | 2.0 | 5.0 | 0.00 | 0.00 | 0.00 | 85 | 1025.5 |
| 20260906072641 | 59 | 142 | 2.0 | 5.0 | 0.00 | 0.00 | 0.00 | 85 | 1025.6 |
| 20260906072136 | 58 | 176 | 1.0 | 5.0 | 0.00 | 0.00 | 0.00 | 86 | 1025.6 |
| 20260906071624 | 58 | 200 | 2.0 | 5.0 | 0.00 | 0.00 | 0.00 | 86 | 1025.8 |
| 20260906071127 | 58 | 223 | 2.0 | 4.0 | 0.00 | 0.00 | 0.00 | 87 | 1025.8 |
| 20260906070642 | 57 | 186 | 2.0 | 4.0 | 0.00 | 0.00 | 0.00 | 87 | 1025.7 |
| 20260906070145 | 57 | 216 | 2.0 | 4.0 | 0.00 | 0.00 | 0.00 | 88 | 1025.7 |
| 20260906065705 | 57 | 169 | 2.0 | 5.0 | 0.00 | 0.00 | 0.00 | 88 | 1025.6 |
| 20260906065203 | 57 | 210 | 2.0 | 5.0 | 0.00 | 0.00 | 0.00 | 88 | 1025.6 |
| 20260906064702 | 57 | 180 | 2.0 | 5.0 | 0.00 | 0.00 | 0.00 | 88 | 1025.6 |
| 20260906064111 | 57 | 104 | 2.0 | 5.0 | 0.00 | 0.00 | 0.00 | 88 | 1025.6 |
| 20260906063621 | 57 | 188 | 2.0 | 6.0 | 0.00 | 0.00 | 0.00 | 88 | 1025.7 |
| 20260906063114 | 57 | 165 | 2.0 | 6.0 | 0.00 | 0.00 | 0.00 | 89 | 1025.6 |
| 20260906062620 | 56 | 182 | 2.0 | 7.0 | 0.00 | 0.00 | 0.00 | 89 | 1025.6 |
| 20260906062124 | 56 | 182 | 2.0 | 7.0 | 0.00 | 0.00 | 0.00 | 90 | 1025.5 |
| 20260906061620 | 56 | 175 | 1.0 | 4.0 | 0.00 | 0.00 | 0.00 | 91 | 1025.5 |
| 20260906061126 | 55 | 209 | 1.0 | 4.0 | 0.00 | 0.00 | 0.00 | 91 | 1025.4 |
| 20260906060621 | 55 | 189 | 2.0 | 4.0 | 0.00 | 0.00 | 0.00 | 91 | 1025.4 |
| 20260906060113 | 55 | 137 | 1.0 | 5.0 | 0.00 | 0.00 | 0.00 | 92 | 1025.3 |
| 20260906055625 | 55 | 174 | 1.0 | 5.0 | 0.00 | 0.00 | 0.00 | 92 | 1025.4 |
| 20260906055131 | 54 | 167 | 1.0 | 3.0 | 0.00 | 0.00 | 0.00 | 92 | 1025.4 |
| 20260906054618 | 54 | 151 | 2.0 | 4.0 | 0.00 | 0.00 | 0.00 | 93 | 1025.4 |
| 20260906054132 | 54 | 180 | 2.0 | 4.0 | 0.00 | 0.00 | 0.00 | 93 | 1025.3 |
| 20260906053650 | 54 | 165 | 1.0 | 4.0 | 0.00 | 0.00 | 0.00 | 93 | 1025.3 |
| 20260906053136 | 54 | 155 | 2.0 | 4.0 | 0.00 | 0.00 | 0.00 | 93 | 1025.4 |
| 20260906052622 | 54 | 159 | 2.0 | 4.0 | 0.00 | 0.00 | 0.00 | 93 | 1025.4 |
| 20260906052144 | 54 | 186 | 2.0 | 4.0 | 0.00 | 0.00 | 0.00 | 93 | 1025.3 |
| 20260906051640 | 54 | 178 | 2.0 | 3.0 | 0.00 | 0.00 | 0.00 | 93 | 1025.2 |
| 20260906051124 | 54 | 173 | 1.0 | 3.0 | 0.00 | 0.00 | 0.00 | 93 | 1025.4 |
| 20260906050620 | 53 | 144 | 1.0 | 4.0 | 0.00 | 0.00 | 0.00 | 93 | 1025.2 |
| 20260906050143 | 53 | 203 | 2.0 | 4.0 | 0.00 | 0.00 | 0.00 | 94 | 1025.3 |
| 20260906045638 | 53 | 144 | 2.0 | 4.0 | 0.00 | 0.00 | 0.00 | 93 | 1025.2 |
| 20260906045121 | 53 | 167 | 2.0 | 3.0 | 0.00 | 0.00 | 0.00 | 93 | 1025.0 |
| 20260906044640 | 54 | 152 | 1.0 | 3.0 | 0.00 | 0.00 | 0.00 | 94 | 1025.1 |
| 20260906044135 | 54 | 171 | 1.0 | 3.0 | 0.00 | 0.00 | 0.00 | 94 | 1025.1 |
| 20260906043641 | 54 | 167 | 1.0 | 4.0 | 0.00 | 0.00 | 0.00 | 94 | 1025.2 |
| 20260906043131 | 54 | 175 | 2.0 | 4.0 | 0.00 | 0.00 | 0.00 | 94 | 1025.2 |
| 20260906042656 | 54 | 169 | 1.0 | 4.0 | 0.00 | 0.00 | 0.00 | 94 | 1025.3 |
| 20260906042119 | 54 | 219 | 1.0 | 4.0 | 0.00 | 0.00 | 0.00 | 94 | 1025.3 |
| 20260906041636 | 54 | 167 | 2.0 | 4.0 | 0.00 | 0.00 | 0.00 | 94 | 1025.3 |
| 20260906041203 | 54 | 178 | 2.0 | 3.0 | 0.00 | 0.00 | 0.00 | 94 | 1025.2 |
| 20260906040617 | 54 | 171 | 2.0 | 3.0 | 0.00 | 0.00 | 0.00 | 94 | 1025.3 |
| 20260906040119 | 54 | 146 | 1.0 | 4.0 | 0.00 | 0.00 | 0.00 | 94 | 1025.5 |
| 20260906035652 | 54 | 131 | 1.0 | 4.0 | 0.00 | 0.00 | 0.00 | 95 | 1025.4 |
| 20260906035134 | 54 | 203 | 2.0 | 3.0 | 0.00 | 0.00 | 0.00 | 95 | 1025.5 |
| 20260906034621 | 54 | 136 | 1.0 | 3.0 | 0.00 | 0.00 | 0.00 | 95 | 1025.6 |
| 20260906034130 | 53 | 169 | 1.0 | 3.0 | 0.00 | 0.00 | 0.00 | 95 | 1025.6 |
| 20260906033621 | 53 | 166 | 1.0 | 3.0 | 0.00 | 0.00 | 0.00 | 95 | 1025.6 |
| 20260906033127 | 53 | 157 | 2.0 | 3.0 | 0.00 | 0.00 | 0.00 | 95 | 1025.7 |
| 20260906032630 | 53 | 169 | 1.0 | 3.0 | 0.00 | 0.00 | 0.00 | 94 | 1025.6 |
| 20260906032130 | 53 | 180 | 1.0 | 3.0 | 0.00 | 0.00 | 0.00 | 95 | 1025.6 |
| 20260906031622 | 53 | 168 | 2.0 | 3.0 | 0.00 | 0.00 | 0.00 | 95 | 1025.7 |
| 20260906031120 | 53 | 173 | 1.0 | 4.0 | 0.00 | 0.00 | 0.00 | 95 | 1025.6 |
| 20260906030627 | 53 | 189 | 1.0 | 4.0 | 0.00 | 0.00 | 0.00 | 95 | 1025.5 |
| 20260906030124 | 53 | 168 | 1.0 | 2.0 | 0.00 | 0.00 | 0.00 | 95 | 1025.5 |
| 20260906025629 | 53 | 143 | 1.0 | 2.0 | 0.00 | 0.00 | 0.00 | 95 | 1025.7 |
| 20260906025139 | 53 | 169 | 1.0 | 2.0 | 0.00 | 0.00 | 0.00 | 95 | 1025.7 |
| 20260906024621 | 53 | 138 | 1.0 | 2.0 | 0.00 | 0.00 | 0.00 | 95 | 1025.8 |
| 20260906024120 | 53 | 135 | 0.0 | 2.0 | 0.00 | 0.00 | 0.00 | 95 | 1025.9 |
| 20260906023629 | 53 | 132 | 1.0 | 2.0 | 0.00 | 0.00 | 0.00 | 95 | 1026.0 |
| 20260906023137 | 54 | 171 | 1.0 | 2.0 | 0.00 | 0.00 | 0.00 | 95 | 1026.0 |
| 20260906022622 | 54 | 165 | 1.0 | 2.0 | 0.00 | 0.00 | 0.00 | 95 | 1026.1 |
| 20260906022124 | 54 | 147 | 1.0 | 2.0 | 0.00 | 0.00 | 0.00 | 95 | 1026.2 |
| 20260906021636 | 54 | 167 | 1.0 | 2.0 | 0.00 | 0.00 | 0.00 | 95 | 1026.1 |
| 20260906021146 | 53 | 200 | 1.0 | 2.0 | 0.00 | 0.00 | 0.00 | 95 | 1026.3 |
| 20260906020632 | 54 | 180 | 1.0 | 2.0 | 0.00 | 0.00 | 0.00 | 96 | 1026.3 |
| 20260906020124 | 53 | 187 | 1.0 | 2.0 | 0.00 | 0.00 | 0.00 | 95 | 1026.2 |
| 20260906015621 | 53 | 187 | 1.0 | 2.0 | 0.00 | 0.00 | 0.00 | 95 | 1026.1 |
| 20260906015114 | 53 | 187 | 1.0 | 2.0 | 0.00 | 0.00 | 0.00 | 95 | 1026.1 |
| 20260906014622 | 53 | 187 | 1.0 | 2.0 | 0.00 | 0.00 | 0.00 | 95 | 1026.1 |
| 20260906014116 | 53 | 187 | 0.0 | 1.0 | 0.00 | 0.00 | 0.00 | 95 | 1026.0 |
| 20260906013624 | 53 | 187 | 0.0 | 1.0 | 0.00 | 0.00 | 0.00 | 95 | 1025.8 |
| 20260906013124 | 53 | 187 | 0.0 | 1.0 | 0.00 | 0.00 | 0.00 | 95 | 1026.0 |
| 20260906012635 | 53 | 187 | 0.0 | 1.0 | 0.00 | 0.00 | 0.00 | 95 | 1026.0 |
| 20260906012114 | 53 | 187 | 0.0 | 1.0 | 0.00 | 0.00 | 0.00 | 95 | 1025.9 |
| 20260906011631 | 53 | 187 | 0.0 | 1.0 | 0.00 | 0.00 | 0.00 | 95 | 1026.0 |
| 20260906011131 | 53 | 187 | 0.0 | 1.0 | 0.00 | 0.00 | 0.00 | 95 | 1026.0 |
| 20260906010642 | 53 | 187 | 0.0 | 2.0 | 0.00 | 0.00 | 0.00 | 95 | 1026.1 |
| 20260906010131 | 53 | 187 | 0.0 | 2.0 | 0.00 | 0.00 | 0.00 | 95 | 1026.1 |
| 20260906005629 | 53 | 187 | 1.0 | 2.0 | 0.00 | 0.00 | 0.00 | 95 | 1026.0 |
| 20260906005111 | 53 | 187 | 1.0 | 1.0 | 0.00 | 0.00 | 0.00 | 95 | 1026.2 |
| 20260906004625 | 53 | 187 | 0.0 | 2.0 | 0.00 | 0.00 | 0.00 | 95 | 1026.1 |
| 20260906004151 | 53 | 187 | 1.0 | 2.0 | 0.00 | 0.00 | 0.00 | 95 | 1026.0 |
| 20260906003640 | 53 | 187 | 0.0 | 1.0 | 0.00 | 0.00 | 0.00 | 95 | 1025.9 |
| 20260906003121 | 53 | 187 | 0.0 | 1.0 | 0.00 | 0.00 | 0.00 | 95 | 1026.0 |
| 20260906002634 | 53 | 187 | 0.0 | 1.0 | 0.00 | 0.00 | 0.00 | 95 | 1026.0 |
| 20260906002133 | 53 | 187 | 1.0 | 1.0 | 0.00 | 0.00 | 0.00 | 95 | 1025.9 |
| 20260906001648 | 53 | 187 | 0.0 | 1.0 | 0.00 | 0.00 | 0.00 | 95 | 1026.1 |
| 20260906001130 | 53 | 187 | 0.0 | 1.0 | 0.00 | 0.00 | 0.00 | 95 | 1025.9 |
| 20260906000644 | 53 | 187 | 1.0 | 2.0 | 0.00 | 0.00 | 0.00 | 95 | 1025.7 |
| 20260906000152 | 53 | 187 | 1.0 | 2.0 | 0.00 | 0.00 | 0.00 | 95 | 1025.7 |
| 20260905235629 | 53 | 273 | 0.0 | 1.0 | 0.00 | 0.00 | 0.00 | 95 | 1025.8 |
| 20260905235130 | 53 | 273 | 0.0 | 0.0 | 0.00 | 0.00 | 0.00 | 94 | 1025.7 |
| 20260905234640 | 53 | 273 | 0.0 | 1.0 | 0.00 | 0.00 | 0.00 | 94 | 1025.7 |
| 20260905234152 | 54 | 273 | 0.0 | 1.0 | 0.00 | 0.00 | 0.00 | 94 | 1025.8 |
| 20260905233628 | 53 | 273 | 1.0 | 1.0 | 0.00 | 0.00 | 0.00 | 94 | 1025.8 |
| 20260905233143 | 53 | 273 | 0.0 | 0.0 | 0.00 | 0.00 | 0.00 | 94 | 1025.8 |
| 20260905232635 | 54 | 273 | 0.0 | 0.0 | 0.00 | 0.00 | 0.00 | 94 | 1025.9 |
| 20260905232135 | 54 | 273 | 0.0 | 0.0 | 0.00 | 0.00 | 0.00 | 94 | 1025.9 |
| 20260905231632 | 54 | 273 | 0.0 | 1.0 | 0.00 | 0.00 | 0.00 | 94 | 1026.0 |
| 20260905231134 | 54 | 273 | 0.0 | 2.0 | 0.00 | 0.00 | 0.00 | 94 | 1025.9 |
| 20260905230630 | 54 | 273 | 1.0 | 2.0 | 0.00 | 0.00 | 0.00 | 94 | 1025.9 |
| 20260905230115 | 54 | 273 | 0.0 | 0.0 | 0.00 | 0.00 | 0.00 | 94 | 1025.9 |
| 20260905225617 | 54 | 273 | 0.0 | 0.0 | 0.00 | 0.00 | 0.00 | 94 | 1025.8 |
| 20260905225147 | 54 | 273 | 0.0 | 0.0 | 0.00 | 0.00 | 0.00 | 94 | 1025.9 |
| 20260905224627 | 54 | 273 | 0.0 | 2.0 | 0.00 | 0.00 | 0.00 | 94 | 1025.8 |
| 20260905224128 | 54 | 273 | 0.0 | 2.0 | 0.00 | 0.00 | 0.00 | 94 | 1025.7 |
| 20260905223641 | 54 | 273 | 0.0 | 0.0 | 0.00 | 0.00 | 0.00 | 94 | 1025.7 |
| 20260905223119 | 54 | 273 | 0.0 | 0.0 | 0.00 | 0.00 | 0.00 | 94 | 1025.8 |
| 20260905222628 | 54 | 273 | 0.0 | 0.0 | 0.00 | 0.00 | 0.00 | 94 | 1025.8 |
| 20260905222137 | 54 | 273 | 0.0 | 1.0 | 0.00 | 0.00 | 0.00 | 94 | 1025.6 |
| 20260905221619 | 54 | 273 | 0.0 | 2.0 | 0.00 | 0.00 | 0.00 | 94 | 1025.6 |
| 20260905221157 | 55 | 273 | 1.0 | 2.0 | 0.00 | 0.00 | 0.00 | 94 | 1025.7 |
| 20260905220617 | 54 | 273 | 0.0 | 1.0 | 0.00 | 0.00 | 0.00 | 93 | 1025.6 |
| 20260905220129 | 55 | 273 | 0.0 | 1.0 | 0.00 | 0.00 | 0.00 | 93 | 1025.5 |
| 20260905215639 | 54 | 273 | 0.0 | 1.0 | 0.00 | 0.00 | 0.00 | 93 | 1025.5 |
| 20260905215135 | 54 | 273 | 0.0 | 0.0 | 0.00 | 0.00 | 0.00 | 93 | 1025.5 |
| 20260905214628 | 54 | 273 | 0.0 | 0.0 | 0.00 | 0.00 | 0.00 | 93 | 1025.4 |
| 20260905214113 | 54 | 273 | 0.0 | 0.0 | 0.00 | 0.00 | 0.00 | 93 | 1025.4 |
| 20260905213650 | 55 | 273 | 0.0 | 0.0 | 0.00 | 0.00 | 0.00 | 93 | 1025.4 |
| 20260905213119 | 55 | 273 | 0.0 | 0.0 | 0.00 | 0.00 | 0.00 | 93 | 1025.3 |
| 20260905212632 | 55 | 273 | 0.0 | 0.0 | 0.00 | 0.00 | 0.00 | 92 | 1025.4 |
| 20260905212130 | 55 | 273 | 0.0 | 0.0 | 0.00 | 0.00 | 0.00 | 92 | 1025.5 |
| 20260905211630 | 55 | 273 | 0.0 | 0.0 | 0.00 | 0.00 | 0.00 | 92 | 1025.5 |
| 20260905211126 | 55 | 273 | 0.0 | 0.0 | 0.00 | 0.00 | 0.00 | 92 | 1025.4 |
| 20260905210633 | 55 | 273 | 0.0 | 0.0 | 0.00 | 0.00 | 0.00 | 92 | 1025.4 |
| 20260905210142 | 55 | 273 | 0.0 | 0.0 | 0.00 | 0.00 | 0.00 | 92 | 1025.3 |
| 20260905205643 | 55 | 273 | 0.0 | 0.0 | 0.00 | 0.00 | 0.00 | 92 | 1025.2 |
| 20260905205143 | 55 | 273 | 0.0 | 0.0 | 0.00 | 0.00 | 0.00 | 91 | 1025.3 |
| 20260905204649 | 55 | 273 | 0.0 | 0.0 | 0.00 | 0.00 | 0.00 | 91 | 1025.3 |
| 20260905204117 | 56 | 273 | 0.0 | 0.0 | 0.00 | 0.00 | 0.00 | 91 | 1025.3 |
| 20260905203632 | 56 | 273 | 0.0 | 0.0 | 0.00 | 0.00 | 0.00 | 91 | 1025.3 |
| 20260905203118 | 56 | 273 | 0.0 | 0.0 | 0.00 | 0.00 | 0.00 | 91 | 1025.3 |
| 20260905202638 | 56 | 273 | 0.0 | 0.0 | 0.00 | 0.00 | 0.00 | 90 | 1025.3 |
| 20260905202157 | 56 | 273 | 0.0 | 0.0 | 0.00 | 0.00 | 0.00 | 90 | 1025.2 |
| 20260905201629 | 56 | 273 | 0.0 | 0.0 | 0.00 | 0.00 | 0.00 | 90 | 1025.2 |
| 20260905201118 | 56 | 273 | 0.0 | 0.0 | 0.00 | 0.00 | 0.00 | 90 | 1025.2 |
| 20260905200628 | 56 | 273 | 0.0 | 0.0 | 0.00 | 0.00 | 0.00 | 89 | 1025.2 |
| 20260905200129 | 57 | 273 | 0.0 | 0.0 | 0.00 | 0.00 | 0.00 | 89 | 1025.1 |
| 20260905195626 | 57 | 273 | 0.0 | 0.0 | 0.00 | 0.00 | 0.00 | 89 | 1025.1 |
| 20260905195133 | 57 | 273 | 0.0 | 0.0 | 0.00 | 0.00 | 0.00 | 88 | 1025.0 |
| 20260905194627 | 57 | 273 | 0.0 | 0.0 | 0.00 | 0.00 | 0.00 | 87 | 1025.1 |
| 20260905194136 | 57 | 273 | 0.0 | 0.0 | 0.00 | 0.00 | 0.00 | 87 | 1025.1 |
| 20260905193638 | 57 | 273 | 0.0 | 0.0 | 0.00 | 0.00 | 0.00 | 87 | 1025.1 |
| 20260905193133 | 58 | 273 | 0.0 | 0.0 | 0.00 | 0.00 | 0.00 | 86 | 1025.0 |
| 20260905192639 | 58 | 273 | 0.0 | 0.0 | 0.00 | 0.00 | 0.00 | 86 | 1024.9 |
| 20260905192114 | 58 | 273 | 0.0 | 1.0 | 0.00 | 0.00 | 0.00 | 85 | 1024.9 |
| 20260905191645 | 59 | 273 | 0.0 | 1.0 | 0.00 | 0.00 | 0.00 | 84 | 1025.0 |
| 20260905191154 | 59 | 273 | 0.0 | 1.0 | 0.00 | 0.00 | 0.00 | 83 | 1024.8 |
| 20260905190618 | 59 | 308 | 0.0 | 1.0 | 0.00 | 0.00 | 0.00 | 83 | 1024.7 |
| 20260905190147 | 60 | 308 | 0.0 | 1.0 | 0.00 | 0.00 | 0.00 | 82 | 1024.7 |
| 20260905185636 | 61 | 308 | 0.0 | 1.0 | 0.00 | 0.00 | 0.00 | 80 | 1024.8 |
| 20260905185131 | 61 | 308 | 0.0 | 2.0 | 0.00 | 0.00 | 0.00 | 79 | 1024.8 |
| 20260905184621 | 61 | 308 | 0.0 | 3.0 | 0.00 | 0.00 | 0.00 | 78 | 1024.8 |
| 20260905184143 | 62 | 308 | 1.0 | 3.0 | 0.00 | 0.00 | 0.00 | 78 | 1024.7 |
| 20260905183639 | 62 | 257 | 1.0 | 2.0 | 0.00 | 0.00 | 0.00 | 78 | 1024.7 |
| 20260905183142 | 62 | 302 | 0.0 | 2.0 | 0.00 | 0.00 | 0.00 | 78 | 1024.6 |
| 20260905182633 | 62 | 302 | 0.0 | 2.0 | 0.00 | 0.00 | 0.00 | 77 | 1024.6 |
| 20260905182135 | 62 | 302 | 0.0 | 2.0 | 0.00 | 0.00 | 0.00 | 77 | 1024.5 |
| 20260905181635 | 62 | 302 | 0.0 | 2.0 | 0.00 | 0.00 | 0.00 | 77 | 1024.5 |
| 20260905181129 | 62 | 302 | 0.0 | 2.0 | 0.00 | 0.00 | 0.00 | 76 | 1024.5 |
| 20260905180628 | 62 | 302 | 0.0 | 3.0 | 0.00 | 0.00 | 0.00 | 76 | 1024.5 |
| 20260905180127 | 62 | 300 | 0.0 | 3.0 | 0.00 | 0.00 | 0.00 | 76 | 1024.5 |
| 20260905175658 | 62 | 5 | 1.0 | 2.0 | 0.00 | 0.00 | 0.00 | 76 | 1024.5 |
| 20260905175145 | 62 | 287 | 1.0 | 3.0 | 0.00 | 0.00 | 0.00 | 76 | 1024.4 |
| 20260905174618 | 62 | 284 | 1.0 | 3.0 | 0.00 | 0.00 | 0.00 | 75 | 1024.4 |
| 20260905174123 | 62 | 281 | 1.0 | 3.0 | 0.00 | 0.00 | 0.00 | 76 | 1024.5 |
| 20260905173632 | 62 | 296 | 1.0 | 3.0 | 0.00 | 0.00 | 0.00 | 76 | 1024.4 |
| 20260905173132 | 63 | 343 | 0.0 | 4.0 | 0.00 | 0.00 | 0.00 | 74 | 1024.4 |
| 20260905172642 | 63 | 287 | 1.0 | 5.0 | 0.00 | 0.00 | 0.00 | 73 | 1024.4 |
| 20260905172131 | 63 | 269 | 2.0 | 5.0 | 0.00 | 0.00 | 0.00 | 73 | 1024.4 |
| 20260905171645 | 63 | 275 | 1.0 | 7.0 | 0.00 | 0.00 | 0.00 | 71 | 1024.3 |
| 20260905171121 | 63 | 166 | 2.0 | 7.0 | 0.00 | 0.00 | 0.00 | 71 | 1024.3 |
| 20260905170655 | 64 | 285 | 2.0 | 5.0 | 0.00 | 0.00 | 0.00 | 70 | 1024.2 |
| 20260905170123 | 64 | 280 | 2.0 | 6.0 | 0.00 | 0.00 | 0.00 | 70 | 1024.2 |
| 20260905165640 | 64 | 300 | 2.0 | 7.0 | 0.00 | 0.00 | 0.00 | 70 | 1024.3 |
| 20260905165115 | 64 | 329 | 3.0 | 7.0 | 0.00 | 0.00 | 0.00 | 71 | 1024.1 |
| 20260905164630 | 64 | 288 | 2.0 | 8.0 | 0.00 | 0.00 | 0.00 | 71 | 1024.2 |
| 20260905164117 | 64 | 350 | 3.0 | 8.0 | 0.00 | 0.00 | 0.00 | 71 | 1024.2 |
| 20260905163646 | 65 | 338 | 3.0 | 7.0 | 0.00 | 0.00 | 0.00 | 71 | 1024.0 |
| 20260905163125 | 65 | 298 | 2.0 | 5.0 | 0.00 | 0.00 | 0.00 | 70 | 1024.0 |
| 20260905162631 | 65 | 290 | 2.0 | 8.0 | 0.00 | 0.00 | 0.00 | 69 | 1024.0 |
| 20260905162139 | 65 | 305 | 3.0 | 8.0 | 0.00 | 0.00 | 0.00 | 69 | 1024.0 |
| 20260905161705 | 65 | 85 | 2.0 | 5.0 | 0.00 | 0.00 | 0.00 | 69 | 1023.9 |
| 20260905161124 | 65 | 226 | 1.0 | 7.0 | 0.00 | 0.00 | 0.00 | 70 | 1023.9 |
| 20260905160623 | 65 | 272 | 2.0 | 7.0 | 0.00 | 0.00 | 0.00 | 70 | 1023.8 |
| 20260905160128 | 65 | 244 | 1.0 | 6.0 | 0.00 | 0.00 | 0.00 | 72 | 1023.7 |
| 20260905155645 | 65 | 302 | 2.0 | 8.0 | 0.00 | 0.00 | 0.00 | 71 | 1023.6 |
| 20260905155147 | 65 | 259 | 3.0 | 9.0 | 0.00 | 0.00 | 0.00 | 69 | 1023.6 |
| 20260905154628 | 65 | 299 | 3.0 | 9.0 | 0.00 | 0.00 | 0.00 | 70 | 1023.5 |
| 20260905154148 | 65 | 18 | 2.0 | 6.0 | 0.00 | 0.00 | 0.00 | 70 | 1023.4 |
| 20260905153617 | 65 | 296 | 1.0 | 8.0 | 0.00 | 0.00 | 0.00 | 69 | 1023.4 |
| 20260905153140 | 65 | 322 | 2.0 | 9.0 | 0.00 | 0.00 | 0.00 | 69 | 1023.4 |
| 20260905152638 | 66 | 293 | 3.0 | 9.0 | 0.00 | 0.00 | 0.00 | 68 | 1023.3 |
| 20260905152148 | 66 | 346 | 3.0 | 9.0 | 0.00 | 0.00 | 0.00 | 68 | 1023.3 |
| 20260905151645 | 66 | 205 | 4.0 | 10.0 | 0.00 | 0.00 | 0.00 | 68 | 1023.3 |
| 20260905151145 | 65 | 291 | 3.0 | 10.0 | 0.00 | 0.00 | 0.00 | 68 | 1023.2 |
| 20260905150631 | 65 | 284 | 3.0 | 10.0 | 0.00 | 0.00 | 0.00 | 68 | 1023.2 |
| 20260905150122 | 66 | 254 | 4.0 | 11.0 | 0.00 | 0.00 | 0.00 | 68 | 1023.2 |
| 20260905145648 | 65 | 300 | 4.0 | 11.0 | 0.00 | 0.00 | 0.00 | 69 | 1023.1 |
| 20260905145121 | 65 | 308 | 3.0 | 10.0 | 0.00 | 0.00 | 0.00 | 69 | 1023.1 |
| 20260905144618 | 65 | 248 | 3.0 | 10.0 | 0.00 | 0.00 | 0.00 | 69 | 1023.1 |
| 20260905144143 | 65 | 242 | 4.0 | 10.0 | 0.00 | 0.00 | 0.00 | 68 | 1023.0 |
| 20260905143634 | 66 | 244 | 5.0 | 13.0 | 0.00 | 0.00 | 0.00 | 67 | 1023.0 |
| 20260905143132 | 66 | 329 | 5.0 | 13.0 | 0.00 | 0.00 | 0.00 | 66 | 1022.9 |
| 20260905142625 | 67 | 302 | 3.0 | 9.0 | 0.00 | 0.00 | 0.00 | 69 | 1022.9 |
| 20260905142123 | 66 | 360 | 4.0 | 9.0 | 0.00 | 0.00 | 0.00 | 68 | 1022.8 |
| 20260905141621 | 67 | 297 | 3.0 | 11.0 | 0.00 | 0.00 | 0.00 | 66 | 1022.8 |
| 20260905141133 | 67 | 296 | 3.0 | 11.0 | 0.00 | 0.00 | 0.00 | 66 | 1022.6 |
| 20260905140657 | 67 | 289 | 3.0 | 8.0 | 0.00 | 0.00 | 0.00 | 67 | 1022.7 |
| 20260905140156 | 66 | 302 | 2.0 | 15.0 | 0.00 | 0.00 | 0.00 | 68 | 1022.6 |
| 20260905135622 | 67 | 257 | 5.0 | 15.0 | 0.00 | 0.00 | 0.00 | 65 | 1022.7 |
| 20260905135116 | 67 | 294 | 3.0 | 11.0 | 0.00 | 0.00 | 0.00 | 64 | 1022.7 |
| 20260905134633 | 68 | 5 | 5.0 | 13.0 | 0.00 | 0.00 | 0.00 | 61 | 1022.6 |
| 20260905134116 | 68 | 284 | 3.0 | 13.0 | 0.00 | 0.00 | 0.00 | 64 | 1022.5 |
| 20260905133622 | 69 | 343 | 4.0 | 8.0 | 0.00 | 0.00 | 0.00 | 64 | 1022.5 |
| 20260905133141 | 68 | 253 | 3.0 | 10.0 | 0.00 | 0.00 | 0.00 | 65 | 1022.4 |
| 20260905132625 | 66 | 171 | 4.0 | 10.0 | 0.00 | 0.00 | 0.00 | 65 | 1022.3 |
| 20260905132118 | 67 | 177 | 4.0 | 9.0 | 0.00 | 0.00 | 0.00 | 65 | 1022.3 |
| 20260905131628 | 67 | 242 | 5.0 | 10.0 | 0.00 | 0.00 | 0.00 | 64 | 1022.2 |
| 20260905131157 | 69 | 342 | 3.0 | 11.0 | 0.00 | 0.00 | 0.00 | 66 | 1022.1 |
| 20260905130635 | 69 | 267 | 5.0 | 11.0 | 0.00 | 0.00 | 0.00 | 62 | 1022.0 |
| 20260905130139 | 70 | 323 | 4.0 | 10.0 | 0.00 | 0.00 | 0.00 | 62 | 1022.0 |
| 20260905125653 | 68 | 272 | 4.0 | 16.0 | 0.00 | 0.04 | 0.00 | 65 | 1022.1 |
| 20260905125135 | 68 | 360 | 4.0 | 16.0 | 0.00 | 0.04 | 0.00 | 65 | 1022.1 |
| 20260905124618 | 69 | 142 | 2.0 | 15.0 | 0.00 | 0.04 | 0.00 | 67 | 1022.1 |
| 20260905124127 | 69 | 304 | 5.0 | 15.0 | 0.00 | 0.04 | 0.00 | 64 | 1021.9 |
| 20260905123641 | 70 | 252 | 4.0 | 12.0 | 0.00 | 0.04 | 0.00 | 64 | 1021.9 |
| 20260905123203 | 70 | 261 | 2.0 | 11.0 | 0.00 | 0.04 | 0.00 | 64 | 1021.8 |
| 20260905122625 | 70 | 344 | 3.0 | 11.0 | 0.00 | 0.04 | 0.00 | 63 | 1021.7 |
| 20260905122133 | 69 | 343 | 4.0 | 9.0 | 0.00 | 0.04 | 0.00 | 65 | 1021.7 |
| 20260905121644 | 68 | 83 | 2.0 | 13.0 | 0.00 | 0.04 | 0.00 | 66 | 1021.6 |
| 20260905121121 | 69 | 315 | 4.0 | 13.0 | 0.00 | 0.04 | 0.00 | 63 | 1021.6 |
| 20260905120631 | 69 | 296 | 4.0 | 11.0 | 0.00 | 0.04 | 0.00 | 65 | 1021.5 |
| 20260905120127 | 69 | 279 | 5.0 | 15.0 | 0.00 | 0.04 | 0.00 | 62 | 1021.6 |
| 20260905115619 | 70 | 293 | 6.0 | 15.0 | 0.00 | 0.16 | 0.00 | 64 | 1021.6 |
| 20260905115125 | 68 | 267 | 5.0 | 12.0 | 0.00 | 0.16 | 0.00 | 66 | 1021.6 |
| 20260905114703 | 68 | 309 | 5.0 | 12.0 | 0.00 | 0.16 | 0.00 | 63 | 1021.6 |
| 20260905114119 | 69 | 272 | 3.0 | 10.0 | 0.00 | 0.16 | 0.00 | 64 | 1021.5 |
| 20260905113643 | 68 | 234 | 3.0 | 10.0 | 0.00 | 0.16 | 0.00 | 66 | 1021.4 |
| 20260905113146 | 69 | 207 | 4.0 | 12.0 | 0.00 | 0.16 | 0.00 | 62 | 1021.3 |
| 20260905112624 | 71 | 275 | 7.0 | 12.0 | 0.00 | 0.16 | 0.00 | 62 | 1021.2 |
| 20260905112124 | 72 | 269 | 3.0 | 14.0 | 0.00 | 0.16 | 0.00 | 63 | 1021.2 |
| 20260905111623 | 71 | 261 | 4.0 | 14.0 | 0.00 | 0.16 | 0.00 | 63 | 1021.1 |
| 20260905111142 | 70 | 350 | 2.0 | 8.0 | 0.00 | 0.16 | 0.00 | 67 | 1021.0 |
| 20260905110615 | 70 | 63 | 3.0 | 8.0 | 0.00 | 0.16 | 0.00 | 65 | 1021.1 |
| 20260905110118 | 70 | 309 | 3.0 | 9.0 | 0.00 | 0.16 | 0.00 | 67 | 1021.0 |
| 20260905105634 | 69 | 297 | 3.0 | 15.0 | 0.00 | 0.39 | 0.00 | 68 | 1020.9 |
| 20260905105124 | 66 | 265 | 5.0 | 15.0 | 0.00 | 0.39 | 0.00 | 67 | 1021.0 |
| 20260905104623 | 68 | 360 | 5.0 | 14.0 | 0.00 | 0.39 | 0.00 | 69 | 1020.9 |
| 20260905104143 | 69 | 252 | 4.0 | 14.0 | 0.00 | 0.39 | 0.00 | 65 | 1020.9 |
| 20260905103617 | 70 | 277 | 4.0 | 14.0 | 0.00 | 0.39 | 0.00 | 67 | 1020.7 |
| 20260905103115 | 68 | 292 | 3.0 | 12.0 | 0.00 | 0.39 | 0.00 | 68 | 1020.7 |
| 20260905102633 | 66 | 268 | 4.0 | 12.0 | 0.00 | 0.39 | 0.00 | 71 | 1020.6 |
| 20260905102116 | 66 | 288 | 2.0 | 13.0 | 0.00 | 0.39 | 0.00 | 69 | 1020.6 |
| 20260905101626 | 66 | 350 | 4.0 | 13.0 | 0.00 | 0.39 | 0.00 | 71 | 1020.5 |